����������;��������(kWh)
2016-11-14 00:00;73,2
2016-11-14 00:15;70,2
2016-11-14 00:30;71,8
2016-11-14 00:45;71,8
2016-11-14 01:00;68,85
2016-11-14 01:15;70,45
2016-11-14 01:30;68
2016-11-14 01:45;70,55
2016-11-14 02:00;69,7
2016-11-14 02:15;69,55
2016-11-14 02:30;70,95
2016-11-14 02:45;67,75
2016-11-14 03:00;70
2016-11-14 03:15;68,45
2016-11-14 03:30;70,35
2016-11-14 03:45;70,9
2016-11-14 04:00;68,9
2016-11-14 04:15;70,9
2016-11-14 04:30;69,4
2016-11-14 04:45;70,4
2016-11-14 05:00;71,15
2016-11-14 05:15;71,2
2016-11-14 05:30;72,5
2016-11-14 05:45;73,3
2016-11-14 06:00;74,75
2016-11-14 06:15;79,75
2016-11-14 06:30;83,7
2016-11-14 06:45;80,65
2016-11-14 07:00;81,8
2016-11-14 07:15;79,85
2016-11-14 07:30;76,15
2016-11-14 07:45;83,75
2016-11-14 08:00;83,9
2016-11-14 08:15;91,9
2016-11-14 08:30;97,4
2016-11-14 08:45;107
2016-11-14 09:00;112,35
2016-11-14 09:15;111,4
2016-11-14 09:30;116,3
2016-11-14 09:45;116,25
2016-11-14 10:00;118,55
2016-11-14 10:15;116,75
2016-11-14 10:30;128,55
2016-11-14 10:45;132,4
2016-11-14 11:00;136,7
2016-11-14 11:15;148,85
2016-11-14 11:30;149,15
2016-11-14 11:45;152,7
2016-11-14 12:00;141
2016-11-14 12:15;143,35
2016-11-14 12:30;141,75
2016-11-14 12:45;141,15
2016-11-14 13:00;140,05
2016-11-14 13:15;140,35
2016-11-14 13:30;144,25
2016-11-14 13:45;144,05
2016-11-14 14:00;141,15
2016-11-14 14:15;140,5
2016-11-14 14:30;136,7
2016-11-14 14:45;136,1
2016-11-14 15:00;132,2
2016-11-14 15:15;135,3
2016-11-14 15:30;127,1
2016-11-14 15:45;128,9
2016-11-14 16:00;123,3
2016-11-14 16:15;118,95
2016-11-14 16:30;119
2016-11-14 16:45;116,15
2016-11-14 17:00;118,05
2016-11-14 17:15;122,65
2016-11-14 17:30;127,25
2016-11-14 17:45;134
2016-11-14 18:00;134,45
2016-11-14 18:15;133,35
2016-11-14 18:30;132,3
2016-11-14 18:45;134,2
2016-11-14 19:00;131,25
2016-11-14 19:15;125,35
2016-11-14 19:30;122,95
2016-11-14 19:45;120,95
2016-11-14 20:00;118,25
2016-11-14 20:15;117,8
2016-11-14 20:30;101,8
2016-11-14 20:45;116
2016-11-14 21:00;112,55
2016-11-14 21:15;106,25
2016-11-14 21:30;105,7
2016-11-14 21:45;101,8
2016-11-14 22:00;95,7
2016-11-14 22:15;96,9
2016-11-14 22:30;92,4
2016-11-14 22:45;84,9
2016-11-14 23:00;80,7
2016-11-14 23:15;76,65
2016-11-14 23:30;77,95
2016-11-14 23:45;75,95
2016-11-15 00:00;74,55
2016-11-15 00:15;73,95
2016-11-15 00:30;73,45
2016-11-15 00:45;74,95
2016-11-15 01:00;75,4
2016-11-15 01:15;72,6
2016-11-15 01:30;75,15
2016-11-15 01:45;74,85
2016-11-15 02:00;73,25
2016-11-15 02:15;75,2
2016-11-15 02:30;73,9
2016-11-15 02:45;73,55
2016-11-15 03:00;74,9
2016-11-15 03:15;72,55
2016-11-15 03:30;74,1
2016-11-15 03:45;74,75
2016-11-15 04:00;73,65
2016-11-15 04:15;74,4
2016-11-15 04:30;74,4
2016-11-15 04:45;71,8
2016-11-15 05:00;75,2
2016-11-15 05:15;75,8
2016-11-15 05:30;75,7
2016-11-15 05:45;78
2016-11-15 06:00;79,05
2016-11-15 06:15;81,65
2016-11-15 06:30;84,15
2016-11-15 06:45;82,2
2016-11-15 07:00;86,1
2016-11-15 07:15;83,85
2016-11-15 07:30;88,3
2016-11-15 07:45;96,25
2016-11-15 08:00;98,45
2016-11-15 08:15;97,55
2016-11-15 08:30;107,55
2016-11-15 08:45;119,5
2016-11-15 09:00;130,95
2016-11-15 09:15;136,75
2016-11-15 09:30;141,7
2016-11-15 09:45;135,95
2016-11-15 10:00;144,6
2016-11-15 10:15;149,1
2016-11-15 10:30;154,35
2016-11-15 10:45;160,2
2016-11-15 11:00;160,05
2016-11-15 11:15;165,35
2016-11-15 11:30;169,45
2016-11-15 11:45;173,7
2016-11-15 12:00;176,95
2016-11-15 12:15;172,15
2016-11-15 12:30;174,1
2016-11-15 12:45;171,55
2016-11-15 13:00;173
2016-11-15 13:15;177
2016-11-15 13:30;179,7
2016-11-15 13:45;179,55
2016-11-15 14:00;175,45
2016-11-15 14:15;175
2016-11-15 14:30;171,5
2016-11-15 14:45;164,65
2016-11-15 15:00;166,05
2016-11-15 15:15;160,75
2016-11-15 15:30;157,85
2016-11-15 15:45;153,7
2016-11-15 16:00;151,4
2016-11-15 16:15;146,1
2016-11-15 16:30;144,65
2016-11-15 16:45;139,2
2016-11-15 17:00;133,65
2016-11-15 17:15;130,25
2016-11-15 17:30;131,4
2016-11-15 17:45;135,55
2016-11-15 18:00;139,65
2016-11-15 18:15;134,95
2016-11-15 18:30;130,5
2016-11-15 18:45;128,2
2016-11-15 19:00;130,3
2016-11-15 19:15;126,55
2016-11-15 19:30;121,55
2016-11-15 19:45;113,4
2016-11-15 20:00;110,95
2016-11-15 20:15;107,05
2016-11-15 20:30;104,45
2016-11-15 20:45;102,65
2016-11-15 21:00;103,05
2016-11-15 21:15;99,65
2016-11-15 21:30;97,9
2016-11-15 21:45;98,75
2016-11-15 22:00;92,2
2016-11-15 22:15;93,2
2016-11-15 22:30;91,1
2016-11-15 22:45;86,9
2016-11-15 23:00;85,95
2016-11-15 23:15;82,4
2016-11-15 23:30;81,3
2016-11-15 23:45;81,4
2016-11-16 00:00;82,2
2016-11-16 00:15;83,9
2016-11-16 00:30;85,6
2016-11-16 00:45;83,9
2016-11-16 01:00;85,7
2016-11-16 01:15;85,4
2016-11-16 01:30;81,85
2016-11-16 01:45;83,75
2016-11-16 02:00;77,4
2016-11-16 02:15;74,95
2016-11-16 02:30;76,15
2016-11-16 02:45;74,6
2016-11-16 03:00;75,95
2016-11-16 03:15;76,35
2016-11-16 03:30;73,45
2016-11-16 03:45;76,35
2016-11-16 04:00;75,9
2016-11-16 04:15;73,6
2016-11-16 04:30;74,15
2016-11-16 04:45;72,95
2016-11-16 05:00;75,55
2016-11-16 05:15;78,55
2016-11-16 05:30;75,5
2016-11-16 05:45;80,2
2016-11-16 06:00;78,25
2016-11-16 06:15;84
2016-11-16 06:30;87,1
2016-11-16 06:45;84,4
2016-11-16 07:00;89,75
2016-11-16 07:15;84,75
2016-11-16 07:30;84,25
2016-11-16 07:45;88,95
2016-11-16 08:00;90,35
2016-11-16 08:15;92,9
2016-11-16 08:30;100,3
2016-11-16 08:45;107,35
2016-11-16 09:00;111,4
2016-11-16 09:15;118,35
2016-11-16 09:30;123,3
2016-11-16 09:45;130,9
2016-11-16 10:00;137,35
2016-11-16 10:15;141,45
2016-11-16 10:30;146,45
2016-11-16 10:45;146,6
2016-11-16 11:00;154,25
2016-11-16 11:15;162,95
2016-11-16 11:30;169,2
2016-11-16 11:45;174,2
2016-11-16 12:00;184,2
2016-11-16 12:15;183
2016-11-16 12:30;194,1
2016-11-16 12:45;182,4
2016-11-16 13:00;183
2016-11-16 13:15;175,95
2016-11-16 13:30;177,8
2016-11-16 13:45;177,45
2016-11-16 14:00;170,1
2016-11-16 14:15;161,35
2016-11-16 14:30;163,95
2016-11-16 14:45;159,4
2016-11-16 15:00;159,2
2016-11-16 15:15;154,2
2016-11-16 15:30;150,85
2016-11-16 15:45;151
2016-11-16 16:00;144,55
2016-11-16 16:15;137,45
2016-11-16 16:30;134,4
2016-11-16 16:45;133,95
2016-11-16 17:00;137,5
2016-11-16 17:15;138,65
2016-11-16 17:30;136,3
2016-11-16 17:45;141,25
2016-11-16 18:00;140,5
2016-11-16 18:15;131,45
2016-11-16 18:30;124,9
2016-11-16 18:45;129,55
2016-11-16 19:00;125,8
2016-11-16 19:15;124,35
2016-11-16 19:30;115,2
2016-11-16 19:45;116,3
2016-11-16 20:00;111,6
2016-11-16 20:15;104,2
2016-11-16 20:30;103,35
2016-11-16 20:45;101,65
2016-11-16 21:00;102,55
2016-11-16 21:15;100,95
2016-11-16 21:30;98,25
2016-11-16 21:45;99,1
2016-11-16 22:00;93,3
2016-11-16 22:15;93,65
2016-11-16 22:30;88,9
2016-11-16 22:45;85,8
2016-11-16 23:00;89,8
2016-11-16 23:15;87,3
2016-11-16 23:30;84,1
2016-11-16 23:45;84,1
2016-11-17 00:00;86,2
2016-11-17 00:15;85,3
2016-11-17 00:30;83,9
2016-11-17 00:45;76,05
2016-11-17 01:00;77,9
2016-11-17 01:15;77,55
2016-11-17 01:30;76,25
2016-11-17 01:45;77,7
2016-11-17 02:00;78,15
2016-11-17 02:15;76,05
2016-11-17 02:30;76,15
2016-11-17 02:45;77,45
2016-11-17 03:00;76,1
2016-11-17 03:15;76,6
2016-11-17 03:30;77,3
2016-11-17 03:45;77,15
2016-11-17 04:00;76,05
2016-11-17 04:15;76,8
2016-11-17 04:30;77,05
2016-11-17 04:45;75,15
2016-11-17 05:00;74,95
2016-11-17 05:15;75,05
2016-11-17 05:30;74,6
2016-11-17 05:45;74,75
2016-11-17 06:00;74,05
2016-11-17 06:15;77,45
2016-11-17 06:30;75,05
2016-11-17 06:45;72,8
2016-11-17 07:00;73,9
2016-11-17 07:15;71,65
2016-11-17 07:30;69,5
2016-11-17 07:45;69,3
2016-11-17 08:00;71,15
2016-11-17 08:15;68,25
2016-11-17 08:30;73,75
2016-11-17 08:45;81,65
2016-11-17 09:00;80,4
2016-11-17 09:15;79,8
2016-11-17 09:30;79,45
2016-11-17 09:45;77,05
2016-11-17 10:00;77,65
2016-11-17 10:15;80,8
2016-11-17 10:30;85,4
2016-11-17 10:45;86,85
2016-11-17 11:00;86,2
2016-11-17 11:15;90,25
2016-11-17 11:30;92,4
2016-11-17 11:45;103,4
2016-11-17 12:00;109,25
2016-11-17 12:15;108,35
2016-11-17 12:30;111,5
2016-11-17 12:45;105
2016-11-17 13:00;103,6
2016-11-17 13:15;95,1
2016-11-17 13:30;87,9
2016-11-17 13:45;85,9
2016-11-17 14:00;85,25
2016-11-17 14:15;87
2016-11-17 14:30;93,05
2016-11-17 14:45;90,1
2016-11-17 15:00;92,35
2016-11-17 15:15;91,4
2016-11-17 15:30;90,2
2016-11-17 15:45;89,5
2016-11-17 16:00;89
2016-11-17 16:15;89,85
2016-11-17 16:30;93,15
2016-11-17 16:45;92,4
2016-11-17 17:00;92,35
2016-11-17 17:15;87,4
2016-11-17 17:30;84,25
2016-11-17 17:45;90,55
2016-11-17 18:00;94,75
2016-11-17 18:15;91,95
2016-11-17 18:30;89,85
2016-11-17 18:45;90,6
2016-11-17 19:00;95,05
2016-11-17 19:15;92,2
2016-11-17 19:30;90,6
2016-11-17 19:45;89,15
2016-11-17 20:00;88,4
2016-11-17 20:15;89,6
2016-11-17 20:30;90,4
2016-11-17 20:45;85,75
2016-11-17 21:00;87,95
2016-11-17 21:15;93,1
2016-11-17 21:30;92,55
2016-11-17 21:45;89,7
2016-11-17 22:00;86
2016-11-17 22:15;90,85
2016-11-17 22:30;91,25
2016-11-17 22:45;85,85
2016-11-17 23:00;82,9
2016-11-17 23:15;74,95
2016-11-17 23:30;75,75
2016-11-17 23:45;75,2
2016-11-18 00:00;75,8
2016-11-18 00:15;73,85
2016-11-18 00:30;74,65
2016-11-18 00:45;72,85
2016-11-18 01:00;72,45
2016-11-18 01:15;74,35
2016-11-18 01:30;74,1
2016-11-18 01:45;72,75
2016-11-18 02:00;73,2
2016-11-18 02:15;72,65
2016-11-18 02:30;71,8
2016-11-18 02:45;72,95
2016-11-18 03:00;74,2
2016-11-18 03:15;71,9
2016-11-18 03:30;72,5
2016-11-18 03:45;73,4
2016-11-18 04:00;72,8
2016-11-18 04:15;71,65
2016-11-18 04:30;70,55
2016-11-18 04:45;72,65
2016-11-18 05:00;70,35
2016-11-18 05:15;72
2016-11-18 05:30;74,65
2016-11-18 05:45;74,05
2016-11-18 06:00;75,5
2016-11-18 06:15;78,5
2016-11-18 06:30;79,65
2016-11-18 06:45;77,15
2016-11-18 07:00;76
2016-11-18 07:15;72,8
2016-11-18 07:30;77,45
2016-11-18 07:45;79,15
2016-11-18 08:00;81,95
2016-11-18 08:15;84,35
2016-11-18 08:30;87,7
2016-11-18 08:45;102,55
2016-11-18 09:00;109
2016-11-18 09:15;110,7
2016-11-18 09:30;115,65
2016-11-18 09:45;121,2
2016-11-18 10:00;123,3
2016-11-18 10:15;129,15
2016-11-18 10:30;131,25
2016-11-18 10:45;140,65
2016-11-18 11:00;144,05
2016-11-18 11:15;151
2016-11-18 11:30;153,9
2016-11-18 11:45;153,5
2016-11-18 12:00;146,75
2016-11-18 12:15;145
2016-11-18 12:30;143,1
2016-11-18 12:45;144,05
2016-11-18 13:00;146,1
2016-11-18 13:15;147,5
2016-11-18 13:30;144,65
2016-11-18 13:45;143,25
2016-11-18 14:00;141,6
2016-11-18 14:15;142,45
2016-11-18 14:30;142,2
2016-11-18 14:45;144,85
2016-11-18 15:00;138,4
2016-11-18 15:15;141,2
2016-11-18 15:30;139,3
2016-11-18 15:45;131,8
2016-11-18 16:00;130,9
2016-11-18 16:15;126,8
2016-11-18 16:30;125,65
2016-11-18 16:45;125,2
2016-11-18 17:00;122,3
2016-11-18 17:15;122,65
2016-11-18 17:30;121,95
2016-11-18 17:45;124,6
2016-11-18 18:00;127,65
2016-11-18 18:15;122,15
2016-11-18 18:30;115,7
2016-11-18 18:45;111,4
2016-11-18 19:00;110,2
2016-11-18 19:15;113,4
2016-11-18 19:30;111,65
2016-11-18 19:45;111,05
2016-11-18 20:00;110,25
2016-11-18 20:15;103
2016-11-18 20:30;105,8
2016-11-18 20:45;106,65
2016-11-18 21:00;101,3
2016-11-18 21:15;100,35
2016-11-18 21:30;94,55
2016-11-18 21:45;93,05
2016-11-18 22:00;84,7
2016-11-18 22:15;93,75
2016-11-18 22:30;95,55
2016-11-18 22:45;88,9
2016-11-18 23:00;90,05
2016-11-18 23:15;85,5
2016-11-18 23:30;85,35
2016-11-18 23:45;83,25
2016-11-19 00:00;82,9
2016-11-19 00:15;83,15
2016-11-19 00:30;81,8
2016-11-19 00:45;78,1
2016-11-19 01:00;72,6
2016-11-19 01:15;73,85
2016-11-19 01:30;72,85
2016-11-19 01:45;72,6
2016-11-19 02:00;70,9
2016-11-19 02:15;72,55
2016-11-19 02:30;71,2
2016-11-19 02:45;70,6
2016-11-19 03:00;73,65
2016-11-19 03:15;71,1
2016-11-19 03:30;71,2
2016-11-19 03:45;72,8
2016-11-19 04:00;71,85
2016-11-19 04:15;71,2
2016-11-19 04:30;71,3
2016-11-19 04:45;71,75
2016-11-19 05:00;70,4
2016-11-19 05:15;71,2
2016-11-19 05:30;73,15
2016-11-19 05:45;73,3
2016-11-19 06:00;77,3
2016-11-19 06:15;79,15
2016-11-19 06:30;77,75
2016-11-19 06:45;74,15
2016-11-19 07:00;71,9
2016-11-19 07:15;68,6
2016-11-19 07:30;66
2016-11-19 07:45;66,55
2016-11-19 08:00;64,6
2016-11-19 08:15;64,65
2016-11-19 08:30;63,6
2016-11-19 08:45;66,8
2016-11-19 09:00;66,6
2016-11-19 09:15;63,2
2016-11-19 09:30;63
2016-11-19 09:45;63,9
2016-11-19 10:00;63,2
2016-11-19 10:15;64,1
2016-11-19 10:30;62,7
2016-11-19 10:45;68,35
2016-11-19 11:00;69,15
2016-11-19 11:15;68,85
2016-11-19 11:30;69,6
2016-11-19 11:45;75
2016-11-19 12:00;70,85
2016-11-19 12:15;71,5
2016-11-19 12:30;72,75
2016-11-19 12:45;75,8
2016-11-19 13:00;73,85
2016-11-19 13:15;74,25
2016-11-19 13:30;72,4
2016-11-19 13:45;68,6
2016-11-19 14:00;69,55
2016-11-19 14:15;69,75
2016-11-19 14:30;71,5
2016-11-19 14:45;70,7
2016-11-19 15:00;66,9
2016-11-19 15:15;71,8
2016-11-19 15:30;71,4
2016-11-19 15:45;73,7
2016-11-19 16:00;73,65
2016-11-19 16:15;75,4
2016-11-19 16:30;74,45
2016-11-19 16:45;74,25
2016-11-19 17:00;76,05
2016-11-19 17:15;75,55
2016-11-19 17:30;84,45
2016-11-19 17:45;95,75
2016-11-19 18:00;91,55
2016-11-19 18:15;88,05
2016-11-19 18:30;91,3
2016-11-19 18:45;96,25
2016-11-19 19:00;94
2016-11-19 19:15;86,9
2016-11-19 19:30;86
2016-11-19 19:45;90,45
2016-11-19 20:00;87,8
2016-11-19 20:15;83,35
2016-11-19 20:30;84,05
2016-11-19 20:45;84,3
2016-11-19 21:00;84,05
2016-11-19 21:15;87,05
2016-11-19 21:30;83,2
2016-11-19 21:45;82,35
2016-11-19 22:00;80
2016-11-19 22:15;86,65
2016-11-19 22:30;84,85
2016-11-19 22:45;81,45
2016-11-19 23:00;80,45
2016-11-19 23:15;75,55
2016-11-19 23:30;74,5
2016-11-19 23:45;75,55
2016-11-20 00:00;74,05
2016-11-20 00:15;74
2016-11-20 00:30;79,6
2016-11-20 00:45;80,45
2016-11-20 01:00;78,1
2016-11-20 01:15;79,35
2016-11-20 01:30;81,15
2016-11-20 01:45;73,1
2016-11-20 02:00;70,1
2016-11-20 02:15;71,95
2016-11-20 02:30;71,5
2016-11-20 02:45;70,5
2016-11-20 03:00;69,6
2016-11-20 03:15;72,95
2016-11-20 03:30;71,95
2016-11-20 03:45;71,15
2016-11-20 04:00;71,6
2016-11-20 04:15;72,15
2016-11-20 04:30;70,95
2016-11-20 04:45;71,7
2016-11-20 05:00;71,95
2016-11-20 05:15;70,15
2016-11-20 05:30;69,9
2016-11-20 05:45;72,85
2016-11-20 06:00;75,95
2016-11-20 06:15;76
2016-11-20 06:30;79,2
2016-11-20 06:45;76,75
2016-11-20 07:00;74,7
2016-11-20 07:15;74,6
2016-11-20 07:30;72,35
2016-11-20 07:45;68,6
2016-11-20 08:00;67,95
2016-11-20 08:15;65,45
2016-11-20 08:30;63,7
2016-11-20 08:45;62,1
2016-11-20 09:00;63,45
2016-11-20 09:15;63,25
2016-11-20 09:30;62,85
2016-11-20 09:45;63,1
2016-11-20 10:00;66,25
2016-11-20 10:15;64,15
2016-11-20 10:30;64,9
2016-11-20 10:45;76
2016-11-20 11:00;79,7
2016-11-20 11:15;85,3
2016-11-20 11:30;85,4
2016-11-20 11:45;86,85
2016-11-20 12:00;83,85
2016-11-20 12:15;84,65
2016-11-20 12:30;91,05
2016-11-20 12:45;92,75
2016-11-20 13:00;92,75
2016-11-20 13:15;100
2016-11-20 13:30;102,55
2016-11-20 13:45;98,25
2016-11-20 14:00;92,9
2016-11-20 14:15;90,1
2016-11-20 14:30;86,3
2016-11-20 14:45;84,75
2016-11-20 15:00;86,95
2016-11-20 15:15;87,55
2016-11-20 15:30;74,1
2016-11-20 15:45;71,05
2016-11-20 16:00;80,7
2016-11-20 16:15;79,4
2016-11-20 16:30;76,45
2016-11-20 16:45;77,15
2016-11-20 17:00;81,95
2016-11-20 17:15;77,95
2016-11-20 17:30;78,2
2016-11-20 17:45;80,95
2016-11-20 18:00;83,95
2016-11-20 18:15;84,35
2016-11-20 18:30;86,5
2016-11-20 18:45;89,55
2016-11-20 19:00;90,85
2016-11-20 19:15;87,65
2016-11-20 19:30;89,25
2016-11-20 19:45;98,3
2016-11-20 20:00;95,95
2016-11-20 20:15;89,55
2016-11-20 20:30;96,8
2016-11-20 20:45;97,15
2016-11-20 21:00;97,25
2016-11-20 21:15;87,2
2016-11-20 21:30;86,05
2016-11-20 21:45;84,95
2016-11-20 22:00;80,35
2016-11-20 22:15;83,8
2016-11-20 22:30;81,65
2016-11-20 22:45;78,65
2016-11-20 23:00;79,3
2016-11-20 23:15;71,5
2016-11-20 23:30;73,7
2016-11-20 23:45;72,2

